Other Public Products
Issued by NWS Grand Forks, ND

Home | Current Version | Previous Version | Graphics & Text | Print | Product List | Glossary On
Versions: 1 2 3 4 5 6 7 8 9 10 11 12 13 14 15 16 17 18 19 20 21 22 23 24 25 26 27 28 29 30 31 32 33 34 35 36 37 38 39 40 41 42 43 44 45 46 47 48 49 50
000
FPUS83 KFGF 291210
OPUFGF
PRAIRIE TO PINES WEATHER ROUNDUP
NATIONAL WEATHER SERVICE EASTERN NORTH DAKOTA/GRAND FORKS ND
700 AM CDT TUE JUL 29 2014

 **SATELLITE DATA USED TO AUGMENT SKY COVER AT AUTOMATED STATIONS**
 *****  WEATHER ACROSS EASTERN NORTH DAKOTA  *****

CITY           SKY/WX    TMP DP  RH WIND       PRES   REMARKS
GRAND FORKS    PTCLDY    53  51  93 CALM      30.17S
6HR MIN TEMP:  51; 6HR MAX TEMP:  56;

GRAND FORKS AF CLEAR     55  55  99 W1        30.18S
GRAND CITY NWS   N/A     41 N/A N/A MISG        N/A
BUXTON         NOT AVBL
DEVILS LAKE    CLEAR     55  50  82 CALM      30.20R
6HR MIN TEMP:  54; 6HR MAX TEMP:  57;

FARGO          CLEAR     54  50  86 CALM      30.18S
6HR MIN TEMP:  51; 6HR MAX TEMP:  57;

WAHPETON ARPT  SUNNY     48  45  87 W3        30.19S
$$

 *****  WEATHER ACROSS CENTRAL AND WESTERN NORTH DAKOTA  *****

CITY           SKY/WX    TMP DP  RH WIND       PRES   REMARKS
JAMESTOWN      CLEAR     51  49  92 W3        30.21S
6HR MIN TEMP:  50; 6HR MAX TEMP:  57;

BISMARCK       CLEAR     51  49  92 CALM      30.24S
6HR MIN TEMP:  48; 6HR MAX TEMP:  58;

MINOT          CLEAR     58  54  86 SW6       30.20F
6HR MIN TEMP:  54; 6HR MAX TEMP:  60;

MINOT AFB      CLEAR     54  54  99 W1        30.20S
6HR MIN TEMP:  53; 6HR MAX TEMP:  58;

GARRISON         N/A     57  54  89 CALM      30.22F
6HR MIN TEMP:  53; 6HR MAX TEMP:  57;

WILLISTON      CLEAR     54  51  90 CALM      30.20S FOG
6HR MIN TEMP:  53; 6HR MAX TEMP:  67;

DICKINSON      CLEAR     52  49  89 S6        30.22S
6HR MIN TEMP:  52; 6HR MAX TEMP:  57;

HETTINGER      CLEAR     48  44  86 CALM      30.25S
6HR MIN TEMP:  45; 6HR MAX TEMP:  58;

$$

 *****  OTHER OBSERVATIONS NORTHEAST NORTH DAKOTA  *****

CITY           SKY/WX    TMP DP  RH WIND       PRES   REMARKS
WALHALLA         N/A     54  54 100 CALM        N/A
LANGDON        FAIR      48  46  93 NW5       30.20S
CAVALIER       FAIR      54  52  94 W5        30.17S
GRAFTON        FAIR      55  54  94 NW6       30.17S
CANDO          FAIR      50  48  93 NW5       30.21S
FORT TOTTEN      N/A     53  52  97 CALM      29.95
ROLLA          FAIR      50  50 100 CALM      30.22F
RUGBY          FAIR      50  50 100 SW5       30.21S
 ***** THE ABOVE OBSERVATIONS ARE NON NWS ARE NOT QUALITY
        CONTROLLED AND MAY MIS-REPORT RAIN FOR SNOW...
$$

 *****  OTHER OBSERVATIONS SOUTHEAST NORTH DAKOTA *****

CITY           SKY/WX    TMP DP  RH WIND       PRES   REMARKS
COOPERSTOWN    NOT AVBL
VALLEY CITY    FAIR      54  54 100 NW7       30.21S
OAKES          NOT AVBL
GWINNER        SUNNY     55  54  94 W6        30.22R
BUFFALO        NOT AVBL
WYNDMERE       NOT AVBL
 ***** THE ABOVE OBSERVATIONS ARE NON NWS ARE NOT QUALITY
       CONTROLLED AND MAY MIS-REPORT RAIN FOR SNOW...
$$

  *****  WEATHER ACROSS NORTHERN MINNESOTA  *****

CITY           SKY/WX    TMP DP  RH WIND       PRES   REMARKS
FLAG ISLAND    CLEAR     61  55  82 NW9       30.11S
WARROAD        CLEAR     55  52  88 W3        30.15R
ROSEAU         CLEAR     55  52  88 W6        30.15S
HALLOCK        CLEAR     54  52  94 CALM      30.17R
THF RVR FALLS  CLEAR     55  54  94 CALM      30.17S
6HR MIN TEMP:  54; 6HR MAX TEMP:  61;

HALSTAD          N/A     53  52  95 NW2         N/A
FOSSTON        CLEAR     48  48 100 CALM      30.18S FOG
BAUDETTE       CLEAR     58  55  90 W6        30.13S
6HR MIN TEMP:  57; 6HR MAX TEMP:  61;

WASKISH        CLEAR     61  55  82 NW7       30.13S
CROOKSTON      CLEAR     54  52  94 CALM      30.18S
$$
  *****  WEATHER ACROSS CENTRAL AND WEST MINNESOTA  *****

CITY           SKY/WX    TMP DP  RH WIND       PRES   REMARKS
BEMIDJI        CLEAR     55  53  92 W6        30.16R
PARK RAPIDS    CLEAR     52  52 100 NW3       30.16S
6HR MIN TEMP:  49; 6HR MAX TEMP:  54;

WADENA         CLEAR     54  54 100 CALM      30.16S
DETROIT LAKES  CLEAR     57  54  88 NW5       30.19S
MOORHEAD       CLEAR     54  54 100 CALM      30.19S
FERGUS FALLS   CLEAR     54  52  94 CALM      30.19S
ELBOW LAKE     FAIR      52  52  99 CALM      30.18S
MORRIS MN      CLEAR     52  52 100 W5        30.18S
STAPLES        CLEAR     54  52  94 W3        30.16S
WHEATON        CLEAR     54  52  94 W5        30.21S
$$
  *****  WEATHER ELSEWHERE ACROSS MINNESOTA  *****

CITY           SKY/WX    TMP DP  RH WIND       PRES   REMARKS
DULUTH         MOSUNNY   59  53  80 NW9       30.07F
6HR MIN TEMP:  53; 6HR MAX TEMP:  61;

INTRNTL FALLS  PTSUNNY   59  56  89 W6        30.09S
6HR MIN TEMP:  53; 6HR MAX TEMP:  59;

ELY            MOSUNNY   55  54  94 W5        30.06F
CLOQUET        SUNNY     55  54  94 W6        30.10S
BRAINERD       CLEAR     57  54  89 CALM      30.15R
6HR MIN TEMP:  52; 6HR MAX TEMP:  61;

HIBBING        CLOUDY    58  54  86 W7        30.10S
6HR MIN TEMP:  48; 6HR MAX TEMP:  58;

ALEXANDRIA     CLEAR     59  55  87 NW5       30.19S
6HR MIN TEMP:  55; 6HR MAX TEMP:  60;

SAINT CLOUD    CLEAR     57  53  86 NW3       30.15R
6HR MIN TEMP:  56; 6HR MAX TEMP:  61;

MINNEAPOLIS    PTCLDY    61  56  83 NW6       30.13S
6HR MIN TEMP:  59; 6HR MAX TEMP:  64;

$$

  *****  WEATHER ACROSS SOUTH DAKOTA  *****

CITY           SKY/WX    TMP DP  RH WIND       PRES   REMARKS
SIOUX FALLS    PTCLDY    51  50  96 CALM      30.22R
6HR MIN TEMP:  50; 6HR MAX TEMP:  56;

BROOKINGS      NOT AVBL
WATERTOWN      MOCLDY    50  49  96 CALM      30.21S
6HR MIN TEMP:  49; 6HR MAX TEMP:  55;

HURON          PTCLDY    48  47  96 CALM      30.22S
6HR MIN TEMP:  48; 6HR MAX TEMP:  54;

SISSETON         N/A     54  52  93 NW6       30.19R
ABERDEEN       CLEAR     46  45  96 CALM      30.23R
6HR MIN TEMP:  42; 6HR MAX TEMP:  51;

MITCHELL       CLEAR     51  49  92 CALM      30.23S
PIERRE         CLEAR     52  50  93 CALM      30.22R
6HR MIN TEMP:  51; 6HR MAX TEMP:  59;

MOBRIDGE       CLEAR     51  50  96 E3        30.20F
RAPID CITY     MOCLDY    55  50  83 W3        30.27R
6HR MIN TEMP:  51; 6HR MAX TEMP:  60;

$$

  *****  SOME WEATHER IN NEARBY STATES *****

CITY           SKY/WX    TMP DP  RH WIND       PRES   REMARKS
GLASGOW MT     PTCLDY    61  49  64 E6        30.20S
6HR MIN TEMP:  59; 6HR MAX TEMP:  68;

GREAT FALLS MT MOCLDY    57  49  74 W7        30.18R
6HR MIN TEMP:  57; 6HR MAX TEMP:  74;

CHEYENNE WY    PTCLDY    57  51  80 W8        30.30S
6HR MIN TEMP:  56; 6HR MAX TEMP:  62;

SCOTTSBLUFF NE CLEAR     58  57  97 E5        30.22S
6HR MIN TEMP:  58; 6HR MAX TEMP:  68;

OMAHA NE       PTCLDY    59  56  89 N3        30.21R
6HR MIN TEMP:  56; 6HR MAX TEMP:  64;

DES MOINES IA  CLEAR     59  55  87 NW3       30.15S
6HR MIN TEMP:  57; 6HR MAX TEMP:  63;

DAVENPORT IA   SUNNY     53  51  93 W5        30.12R
6HR MIN TEMP:  50; 6HR MAX TEMP:  53;

CHICAGO IL     MOSUNNY   62  51  67 W8        30.04R
6HR MIN TEMP:  58; 6HR MAX TEMP:  65;

EAU CLAIRE WI  SUNNY     57  55  93 CALM      30.09R
6HR MIN TEMP:  54; 6HR MAX TEMP:  60;

LA CROSSE WI   SUNNY     59  55  87 CALM      30.09R
6HR MIN TEMP:  55; 6HR MAX TEMP:  61;

$$

  *****  SOME NATIONAL WEATHER *****

CITY           SKY/WX    TMP DP  RH WIND       PRES   REMARKS
LA GUARDIA NY  MOSUNNY   65  54  67 NW13      29.84R
6HR MIN TEMP:  65; 6HR MAX TEMP:  68;




USA.gov is the U.S. government's official web portal to all federal, state and local government web resources and services.